| time (UTC) | temp C | wind direction | speed KPH | gust KPH | rain 1hr cm | rain 24hr cm | rain mn cm | humidity % | barometer mb |
| 20260906010033 | -17 | 264 | 0.0 | 0.0 | 0.00 | 0.23 | 0.00 | 1024.6 | |
| 20260906004529 | -17 | 264 | 0.0 | 1.6 | 0.00 | 0.23 | 0.00 | 1024.6 | |
| 20260906003024 | -17 | 264 | 0.0 | 3.2 | 0.00 | 0.23 | 0.00 | 1024.4 | |
| 20260906001518 | -17 | 264 | 0.0 | 1.6 | 0.00 | 0.23 | 0.00 | 1024.3 | |
| 20260906000015 | -17 | 264 | 0.0 | 3.2 | 0.00 | 0.23 | 0.00 | 1024.3 | |
| 20260905234609 | -17 | 264 | 0.0 | 6.4 | 0.00 | 0.23 | 0.00 | 1024.3 | |
| 20260905233006 | -17 | 264 | 0.0 | 4.8 | 0.00 | 0.23 | 0.00 | 1024.2 | |
| 20260905231501 | -17 | 264 | 0.0 | 6.4 | 0.00 | 0.23 | 0.00 | 1024.2 | |
| 20260905230100 | -17 | 264 | 0.0 | 11.3 | 0.00 | 0.23 | 0.00 | 1024.0 | |
| 20260905224552 | -17 | 265 | 0.0 | 3.2 | 0.00 | 0.23 | 0.00 | 1023.8 | |
| 20260905223048 | -17 | 265 | 0.0 | 3.2 | 0.00 | 0.23 | 0.00 | 1023.6 | |
| 20260905221559 | -17 | 265 | 0.0 | 1.6 | 0.00 | 0.23 | 0.00 | 1023.5 | |
| 20260905220041 | -17 | 265 | 0.0 | 0.0 | 0.03 | 0.23 | 0.00 | 1023.4 | |
| 20260905214535 | -17 | 265 | 0.0 | 1.6 | 0.03 | 0.23 | 0.23 | 1023.3 | |
| 20260905213030 | -17 | 265 | 0.0 | 1.6 | 0.03 | 0.23 | 0.23 | 1023.1 | |
| 20260905211525 | -17 | 265 | 0.0 | 0.0 | 0.00 | 0.20 | 0.20 | 1022.9 | |
| 20260905210021 | -17 | 265 | 0.0 | 0.0 | 0.00 | 0.20 | 0.20 | 1022.8 | |
| 20260905204518 | -17 | 265 | 0.0 | 1.6 | 0.00 | 0.20 | 0.20 | 1022.7 | |
| 20260905203013 | -17 | 265 | 0.0 | 0.0 | 0.00 | 0.20 | 0.20 | 1022.6 | |
| 20260905201507 | -17 | 265 | 0.0 | 1.6 | 0.00 | 0.20 | 0.20 | 1022.6 | |
| 20260905200005 | -17 | 265 | 1.6 | 14.5 | 0.00 | 0.20 | 0.20 | 1022.5 | |
| 20260905194600 | -17 | 265 | 1.6 | 6.4 | 0.00 | 0.20 | 0.20 | 1022.3 | |
| 20260905193054 | -17 | 266 | 1.6 | 17.7 | 0.00 | 0.20 | 0.20 | 1022.2 | |
| 20260905191550 | -17 | 276 | 0.0 | 16.1 | 0.00 | 0.20 | 0.20 | 1022.0 | |
| 20260905190052 | -17 | 284 | 4.8 | 14.5 | 0.00 | 0.20 | 0.20 | 1022.0 | |
| 20260905184645 | -17 | 261 | 4.8 | 16.1 | 0.00 | 0.20 | 0.20 | 1021.7 | |
| 20260905183045 | -17 | 259 | 0.0 | 14.5 | 0.00 | 0.20 | 0.20 | 1021.6 | |
| 20260905181544 | -17 | 257 | 6.4 | 24.1 | 0.00 | 0.20 | 0.20 | 1021.4 | |
| 20260905180100 | -17 | 261 | 6.4 | 22.5 | 0.00 | 0.20 | 0.20 | 1021.3 | |
| 20260905174542 | -17 | 263 | 4.8 | 16.1 | 0.00 | 0.20 | 0.20 | 1021.0 | |
| 20260905173103 | -17 | 250 | 4.8 | 19.3 | 0.00 | 0.20 | 0.20 | 1020.8 | |
| 20260905171552 | -17 | 277 | 8.0 | 24.1 | 0.00 | 0.20 | 0.20 | 1020.8 | |
| 20260905170044 | -17 | 246 | 6.4 | 19.3 | 0.00 | 0.20 | 0.20 | 1020.8 | |
| 20260905164544 | -17 | 267 | 4.8 | 17.7 | 0.00 | 0.20 | 0.20 | 1020.7 | |
| 20260905163040 | -17 | 261 | 8.0 | 29.0 | 0.00 | 0.20 | 0.20 | 1020.7 | |
| 20260905161541 | -17 | 246 | 8.0 | 22.5 | 0.00 | 0.20 | 0.20 | 1020.6 | |
| 20260905160052 | -17 | 280 | 12.9 | 24.1 | 0.00 | 0.20 | 0.20 | 1020.6 | |
| 20260905154548 | -17 | 273 | 11.3 | 38.6 | 0.00 | 0.20 | 0.20 | 1020.6 | |
| 20260905153037 | -17 | 272 | 12.9 | 30.6 | 0.00 | 0.20 | 0.20 | 1020.6 | |
| 20260905151536 | -17 | 269 | 11.3 | 29.0 | 0.00 | 0.20 | 0.20 | 1020.6 | |
| 20260905150040 | -17 | 259 | 12.9 | 25.7 | 0.00 | 0.20 | 0.20 | 1020.5 | |
| 20260905144535 | -17 | 267 | 19.3 | 30.6 | 0.00 | 0.20 | 0.20 | 1020.4 | |
| 20260905143035 | -17 | 282 | 8.0 | 24.1 | 0.00 | 0.20 | 0.20 | 1020.5 | |
| 20260905141534 | -17 | 280 | 14.5 | 22.5 | 0.03 | 0.20 | 0.20 | 1020.7 | |
| 20260905140033 | -17 | 286 | 20.9 | 30.6 | 0.03 | 0.20 | 0.20 | 1020.9 | |
| 20260905134533 | -17 | 279 | 11.3 | 25.7 | 0.03 | 0.20 | 0.20 | 1020.7 | |
| 20260905133031 | -17 | 302 | 12.9 | 25.7 | 0.03 | 0.20 | 0.20 | 1020.7 | |
| 20260905131532 | -17 | 292 | 12.9 | 24.1 | 0.00 | 0.18 | 0.18 | 1020.7 | |
| 20260905130030 | -17 | 283 | 14.5 | 29.0 | 0.00 | 0.18 | 0.18 | 1020.8 | |
| 20260905124530 | -17 | 264 | 12.9 | 30.6 | 0.00 | 0.18 | 0.18 | 1021.0 | |
| 20260905123030 | -17 | 281 | 12.9 | 25.7 | 0.00 | 0.18 | 0.18 | 1021.1 | |
| 20260905121529 | -17 | 283 | 14.5 | 25.7 | 0.00 | 0.18 | 0.18 | 1021.3 | |
| 20260905120042 | -17 | 265 | 16.1 | 25.7 | 0.00 | 0.18 | 0.18 | 1021.4 | |
| 20260905114528 | -17 | 309 | 12.9 | 27.4 | 0.00 | 0.18 | 0.18 | 1021.4 | |
| 20260905113030 | -17 | 269 | 14.5 | 32.2 | 0.00 | 0.18 | 0.18 | 1021.3 | |
| 20260905111549 | -17 | 299 | 9.7 | 20.9 | 0.00 | 0.18 | 0.18 | 1021.4 | |
| 20260905110026 | -17 | 317 | 8.0 | 20.9 | 0.00 | 0.18 | 0.18 | 1021.4 | |
| 20260905104525 | -17 | 319 | 8.0 | 20.9 | 0.00 | 0.18 | 0.18 | 1021.2 | |
| 20260905103029 | -17 | 292 | 8.0 | 16.1 | 0.00 | 0.18 | 0.18 | 1021.4 | |
| 20260905101524 | -17 | 288 | 9.7 | 20.9 | 0.03 | 0.18 | 0.18 | 1021.5 | |
| 20260905100020 | -17 | 293 | 6.4 | 16.1 | 0.03 | 0.18 | 0.18 | 1021.5 | |
| 20260905094516 | -17 | 291 | 3.2 | 14.5 | 0.03 | 0.18 | 0.18 | 1021.6 | |
| 20260905093011 | -17 | 277 | 4.8 | 12.9 | 0.05 | 0.18 | 0.18 | 1021.7 | |
| 20260905091506 | -17 | 268 | 3.2 | 11.3 | 0.03 | 0.15 | 0.15 | 1021.6 | |
| 20260905090001 | -17 | 258 | 4.8 | 14.5 | 0.05 | 0.15 | 0.15 | 1021.6 | |
| 20260905084601 | -17 | 244 | 3.2 | 8.0 | 0.05 | 0.15 | 0.15 | 1021.6 | |
| 20260905083153 | -17 | 260 | 3.2 | 6.4 | 0.03 | 0.15 | 0.15 | 1021.9 | |
| 20260905081548 | -17 | 260 | 0.0 | 9.7 | 0.05 | 0.15 | 0.15 | 1021.7 | |
| 20260905080044 | -17 | 221 | 1.6 | 11.3 | 0.05 | 0.13 | 0.13 | 1021.5 | |
| 20260905074540 | -17 | 219 | 3.2 | 11.3 | 0.05 | 0.13 | 0.13 | 1021.5 | |
| 20260905073038 | -17 | 217 | 4.8 | 17.7 | 0.05 | 0.10 | 0.10 | 1021.4 | |
| 20260905071537 | -17 | 250 | 0.0 | 14.5 | 0.05 | 0.10 | 0.10 | 1021.3 | |
| 20260905070045 | -17 | 265 | 1.6 | 20.9 | 0.05 | 0.08 | 0.08 | 1021.4 | |
| 20260905064537 | -17 | 275 | 0.0 | 4.8 | 0.08 | 0.08 | 0.08 | 1020.8 | |
| 20260905063018 | -17 | 277 | 1.6 | 11.3 | 0.05 | 0.05 | 0.05 | 1021.1 | |
| 20260905061513 | -17 | 301 | 1.6 | 16.1 | 0.05 | 0.05 | 0.05 | 1021.0 | |
| 20260905060009 | -17 | 308 | 4.8 | 17.7 | 0.03 | 0.03 | 0.03 | 1020.7 | |
| 20260905054508 | -17 | 329 | 6.4 | 17.7 | 0.00 | 0.00 | 0.00 | 1019.6 | |
| 20260905053102 | -17 | 323 | 0.0 | 3.2 | 0.00 | 0.00 | 0.00 | 1018.9 | |
| 20260905051555 | -17 | 350 | 3.2 | 17.7 | 0.00 | 0.00 | 0.00 | 1018.3 | |
| 20260905050056 | -17 | 330 | 12.9 | 30.6 | 0.00 | 0.00 | 0.00 | 1018.4 | |
| 20260905044546 | -17 | 306 | 9.7 | 20.9 | 0.00 | 0.03 | 0.00 | 1017.2 | |
| 20260905043042 | -17 | 324 | 17.7 | 40.2 | 0.00 | 0.03 | 0.00 | 1016.8 | |
| 20260905041537 | -17 | 302 | 20.9 | 35.4 | 0.00 | 0.03 | 0.00 | 1016.5 | |
| 20260905040035 | -17 | 302 | 9.7 | 20.9 | 0.00 | 0.03 | 0.00 | 1015.8 | |
| 20260905034531 | -17 | 260 | 0.0 | 11.3 | 0.00 | 0.03 | 0.00 | 1015.2 | |
| 20260905033027 | -17 | 261 | 1.6 | 11.3 | 0.00 | 0.03 | 0.00 | 1015.2 | |
| 20260905031520 | -17 | 269 | 0.0 | 9.7 | 0.00 | 0.03 | 0.00 | 1015.2 | |
| 20260905030016 | -17 | 269 | 1.6 | 12.9 | 0.00 | 0.03 | 0.00 | 1015.0 | |
| 20260905024511 | -17 | 267 | 4.8 | 16.1 | 0.00 | 0.03 | 0.00 | 1014.9 | |
| 20260905023006 | -17 | 266 | 3.2 | 12.9 | 0.00 | 0.03 | 0.00 | 1014.8 | |
| 20260905021502 | -17 | 272 | 3.2 | 16.1 | 0.00 | 0.03 | 0.00 | 1014.6 | |
| 20260905014557 | -17 | 279 | 8.0 | 19.3 | 0.00 | 0.03 | 0.00 | 1014.4 | |
| 20260905013049 | -17 | 277 | 8.0 | 20.9 | 0.00 | 0.03 | 0.00 | 1014.4 | |
| 20260905011545 | -17 | 269 | 8.0 | 22.5 | 0.00 | 0.03 | 0.00 | 1014.4 |